Location: Asheville, NC
(35.6000°N, 82.5500°W)
Time: 23:08:57
(UTC-04:00)

O/OREOS (USA 219) - Visible Passes

Search period start: 23 April 2018 00:00
Search period end: 03 May 2018 00:00
Orbit: 621 x 646 km, 72.0° (Epoch: 22 May)

Date Brightness Start Highest point End Pass type
(mag) Time Alt. Az. Time Alt. Az. Time Alt. Az.
23 Apr ? 04:53:04 10° ESE 04:54:50 12° E 04:56:35 10° ENE visible
24 Apr ? 05:12:39 10° SSE 05:16:33 29° ESE 05:20:29 10° NE visible
25 Apr ? 05:33:56 10° SSW 05:38:26 73° ESE 05:43:00 10° NNE visible
26 Apr ? 04:19:16 10° SE 04:21:35 14° E 04:23:53 10° ENE visible
26 Apr ? 05:56:12 10° SW 06:00:30 45° WNW 06:04:55 10° N visible
27 Apr ? 04:40:57 20° SSE 04:43:19 33° ESE 04:47:25 10° NE visible
28 Apr ? 05:03:06 31° SSW 05:05:14 83° ESE 05:09:50 10° NNE visible
29 Apr ? 03:47:42 15° ESE 03:48:20 16° E 03:51:03 10° ENE visible
29 Apr ? 05:25:10 24° WSW 05:27:20 40° WNW 05:31:40 10° N visible
30 Apr ? 04:09:42 36° ESE 04:10:06 37° ESE 04:14:19 10° NE visible
30 Apr ? 05:47:10 13° W 05:49:38 18° WNW 05:52:50 10° NNW visible
01 May ? 04:31:39 75° SSW 04:32:02 87° WNW 04:36:39 10° NNE visible
02 May ? 03:16:05 17° E 03:16:05 17° E 03:18:09 10° ENE visible
02 May ? 04:53:32 34° W 04:54:09 36° WNW 04:58:24 10° N visible
